Location: Dziadowski
(50.3833°N, 20.0333°E)
Time: 00:34:56
(UTC+00:00)

Cosmos 2227 Rocket - Pass Details

Date: 18 January 2026
Orbit: 837 x 844 km, 71.0° (Epoch: 6 February)

Event Time Altitude Azimuth Distance (km) Brightness Sun altitude
Exits shadow 05:26:41 - 334° (NNW) 3,140 4.7 -10.1°
Reaches altitude 10° 05:30:01 10° 360° (N) 2,472 4.4 -9.6°
Maximum altitude 05:32:05 12° 21° (NNE) 2,335 4.5 -9.3°
Drops below altitude 10° 05:34:10 10° 43° (NE) 2,471 4.9 -9.0°
Sets 05:38:29 0° 74° (ENE) 3,405 6.3 -8.4°
